This demonstration page uses our WeatherBlox Daily Observations layout. Learn more.

Hourly Observations for December 24, 2018

Temp ( °F °C ) Dew Point ( °F °C ) Humidity (%) Winds ( mph kmh ) Pressure ( in mb ) Visibility ( mi km ) Precip ( " mm )
12:15 am 00:15 Clear 32 0 30 -0.9 94 94 SW 7 11 30.21 1023 10 16.0934 0 0
12:35 am 00:35 Clear 33 0.3 31 -0.5 94 94 SW 7 11 30.21 1023 10 16.0934 0 0
12:55 am 00:55 Clear 33 0.3 31 -0.4 95 95 SW 7 11 30.21 1023 10 16.0934 0 0
1:15 am 01:15 Clear 33 0.7 31 -0.3 93 93 SSW 8 13 30.15 1021 10 16.0934 0 0
1:35 am 01:35 Clear 32 0.2 31 -0.6 94 94 SSW 7 11 30.15 1021 10 16.0934 0 0
1:55 am 01:55 Clear 32 0 31 -0.8 94 94 SW 5 7 30.18 1022 10 16.0934 0 0
2:15 am 02:15 Clear 32 0 31 -0.7 95 95 Calm 30.18 1022 10 16.0934 0 0
2:35 am 02:35 Clear 32 -0.1 30 -1 94 94 S 3 6 30.18 1022 10 16.0934 0 0
2:55 am 02:55 Clear 32 -0.2 30 -1.2 93 93 SSW 3 6 30.18 1022 10 16.0934 0 0
3:15 am 03:15 Clear 31 -0.7 29 -1.6 94 94 SSW 3 6 30.18 1022 10 16.0934 0 0
3:35 am 03:35 Clear 29 -1.4 29 -1.9 96 96 WSW 3 6 30.18 1022 10 16.0934 0 0
3:55 am 03:55 Clear 30 -1 29 -1.7 95 95 SSW 3 6 30.18 1022 10 16.0934 0 0
4:15 am 04:15 Clear 31 -0.6 29 -1.5 94 94 SSW 3 6 30.18 1022 10 16.0934 0 0
4:35 am 04:35 Clear 30 -1 29 -1.7 95 95 SSW 3 6 30.15 1021 10 16.0934 0 0
4:55 am 04:55 Clear 28 -2 28 -2.4 97 97 S 5 7 30.15 1021 10 16.0934 0 0
5:15 am 05:15 Clear 28 -2.2 28 -2.5 98 98 S 3 6 30.15 1021 10 16.0934 0 0
5:35 am 05:35 Clear 28 -2.5 27 -2.6 99 99 S 3 6 30.15 1021 10 16.0934 0 0
5:55 am 05:55 Clear 27 -2.6 27 -2.8 99 99 S 3 6 30.15 1021 10 16.0934 0 0
6:15 am 06:15 Clear 28 -2.5 27 -2.6 99 99 S 8 13 30.15 1021 10 16.0934 0 0
6:35 am 06:35 Clear 27 -2.9 27 -3 99 99 SSE 6 9 30.12 1020 10 16.0934 0 0
6:55 am 06:55 Clear 28 -2.5 27 -2.6 99 99 S 5 7 30.12 1020 10 16.0934 0 0
7:15 am 07:15 Clear 28 -2.3 27 -2.6 98 98 SSE 8 13 30.12 1020 10 16.0934 0 0
7:35 am 07:35 Clear 28 -2 28 -2.1 99 99 S 6 9 30.12 1020 10 16.0934 0 0
7:55 am 07:55 Clear 30 -1.3 29 -1.8 96 96 S 7 11 30.12 1020 10 16.0934 0 0
8:15 am 08:15 Sunny 29 -1.5 28 -2 96 96 SSW 3 6 30.12 1020 10 16.0934 0 0
8:35 am 08:35 Sunny 30 -1.2 29 -1.7 96 96 S 3 6 30.12 1020 10 16.0934 0 0
8:55 am 08:55 Sunny 30 -1 29 -1.5 96 96 SSW 3 6 30.12 1020 10 16.0934 0 0
9:15 am 09:15 Sunny 31 -0.5 30 -1.2 95 95 S 5 7 30.12 1020 10 16.0934 0 0
9:35 am 09:35 Sunny 32 0.1 31 -0.8 94 94 S 6 9 30.09 1019 10 16.0934 0 0
9:55 am 09:55 Sunny 32 0.2 31 -0.8 93 93 S 5 7 30.09 1019 10 16.0934 0 0
10:15 am 10:15 Mostly Cloudy 33 0.5 31 -0.5 93 93 SSE 6 9 30.09 1019 10 16.0934 0 0
10:35 am 10:35 Mostly Cloudy 34 1 32 0 93 93 S 7 11 30.09 1019 10 16.0934 0 0
10:55 am 10:55 Mostly Cloudy 35 1.5 32 0 90 90 S 5 7 30.09 1019 10 16.0934 0 0
11:15 am 11:15 Partly Cloudy 35 1.9 32 0 87 87 Calm 30.09 1019 10 16.0934 0 0
11:35 am 11:35 Mostly Cloudy 36 2.3 32 0 85 85 Calm 30.06 1018 10 16.0934 0 0
11:55 am 11:55 Cloudy 37 2.5 32 -0.1 83 83 Calm 30.03 1017 10 16.0934 0 0
12:15 pm 12:15 Cloudy 37 2.7 32 0 83 83 Calm 30 1016 10 16.0934 0 0
12:35 pm 12:35 Cloudy 37 2.9 32 0 81 81 SE 5 7 30 1016 10 16.0934 0 0
12:55 pm 12:55 Cloudy 37 2.6 32 0 83 83 SSE 6 9 30 1016 10 16.0934 0 0
1:15 pm 13:15 Cloudy 36 2.2 32 0 86 86 S 5 7 30 1016 10 16.0934 0 0
1:35 pm 13:35 Cloudy 36 2.2 32 0 86 86 S 3 6 30 1016 10 16.0934 0 0
1:55 pm 13:55 Cloudy 36 2.1 32 0 86 86 Calm 29.97 1015 10 16.0934 0 0
2:15 pm 14:15 Cloudy 36 2.2 32 0 86 86 S 5 7 29.97 1015 10 16.0934 0 0
2:35 pm 14:35 Mostly Cloudy 36 2 32 0 87 87 S 3 6 29.97 1015 10 16.0934 0 0
2:55 pm 14:55 Partly Cloudy 36 2.1 32 0 86 86 Calm 30.03 1017 10 16.0934 0 0
3:15 pm 15:15 Sunny 36 2.2 32 0 86 86 Calm 30 1016 10 16.0934 0 0
3:35 pm 15:35 Sunny 36 2.2 32 0 86 86 Calm 30 1016 10 16.0934 0 0
3:55 pm 15:55 Sunny 36 2.2 32 0 86 86 Calm 30 1016 10 16.0934 0 0
4:15 pm 16:15 Partly Cloudy 36 2.2 32 0 86 86 S 5 7 30 1016 10 16.0934 0 0
4:35 pm 16:35 Mostly Cloudy 35 1.9 32 0 87 87 S 5 7 30.03 1017 10 16.0934 0 0
4:55 pm 16:55 Mostly Cloudy 35 1.5 32 -0.1 89 89 Calm 30.06 1018 10 16.0934 0 0
5:15 pm 17:15 Partly Cloudy 34 1 31 -0.4 90 90 Calm 30.06 1018 10 16.0934 0 0
5:35 pm 17:35 Partly Cloudy 34 1 31 -0.5 90 90 Calm 30.06 1018 10 16.0934 0 0
5:55 pm 17:55 Partly Cloudy 32 0 30 -1.2 92 92 Calm 30.06 1018 10 16.0934 0 0
6:15 pm 18:15 Clear 32 0.1 31 -0.8 94 94 Calm 30.06 1018 10 16.0934 0 0
6:35 pm 18:35 Clear 31 -0.7 30 -1.2 96 96 Calm 30.09 1019 10 16.0934 0 0
6:55 pm 18:55 Clear 30 -1.2 29 -1.6 97 97 SSE 3 6 30.09 1019 10 16.0934 0 0
7:15 pm 19:15 Clear 28 -2.5 27 -2.7 99 99 SE 6 9 30.09 1019 10 16.0934 0 0
7:35 pm 19:35 Clear 29 -1.9 29 -1.9 100 100 SSE 3 6 30.09 1019 10 16.0934 0 0
7:55 pm 19:55 Clear 29 -1.5 29 -1.5 100 100 S 5 7 30.09 1019 10 16.0934 0 0
8:15 pm 20:15 Clear 29 -1.8 29 -1.8 100 100 Calm 30.12 1020 10 16.0934 0 0
8:35 pm 20:35 Clear 30 -1.2 30 -1.2 100 100 S 3 6 30.12 1020 10 16.0934 0 0
8:55 pm 20:55 Partly Cloudy 28 -2 28 -2 100 100 W 5 7 30.12 1020 10 16.0934 0 0
9:15 pm 21:15 Partly Cloudy 29 -1.9 29 -1.9 100 100 SW 3 6 30.12 1020 10 16.0934 0 0
9:35 pm 21:35 Clear 29 -1.7 29 -1.7 100 100 SSW 3 6 30.09 1019 10 16.0934 0 0
9:55 pm 21:55 Clear 28 -2.1 28 -2.1 100 100 SSW 3 6 30.12 1020 7 11.26538 0 0
10:15 pm 22:15 Clear 27 -2.6 27 -2.6 100 100 S 5 7 30.09 1019 7 11.26538 0 0
10:35 pm 22:35 Clear 28 -2.5 28 -2.5 100 100 S 3 6 30.12 1020 7 11.26538 0 0
10:55 pm 22:55 Mostly Cloudy with Mist and Fog 26 -3.2 26 -3.2 100 100 Calm 30.12 1020 1.25 2.011675 0 0
11:15 pm 23:15 Clear with Mist and Fog 23 -5 23 -5 100 100 Calm 30.15 1021 4 6.43736 0 0
11:35 pm 23:35 Clear 25 -4 25 -4 100 100 Calm 30.15 1021 7 11.26538 0 0
11:55 pm 23:55 Clear 23 -5 23 -5 100 100 Calm 30.15 1021 7 11.26538 0 0

Powered by AerisWeather